This is the latest recevied weather packets stored in our database for station/object K7FLA. If no packets are shown the sender has not sent any weather packets the latest 10 day(s).
| Time | Temp. | Humidity | Pressure | Rain* | Wind** | Luminosity | Snow |
|---|---|---|---|---|---|---|---|
| 1788559996 | 31.11° C | 18% | 1094.3 hPa | 0 mm | - | 537 W/m² | - |
| 1788559691 | 31.11° C | 19% | 1094.3 hPa | 0 mm | - | 551 W/m² | - |
| 1788559390 | 30.56° C | 18% | 1094.1 hPa | 0 mm | - | 563 W/m² | - |
| 1788559086 | 30.56° C | 18% | 1094.1 hPa | 0 mm | - | 578 W/m² | - |
| 1788558781 | 30.56° C | 21% | 1094.3 hPa | 0 mm | - | 592 W/m² | - |
| 1788558477 | 30.56° C | 20% | 1094.6 hPa | 0 mm | - | 601 W/m² | - |
| 1788558172 | 30.56° C | 20% | 1094.7 hPa | 0 mm | - | 612 W/m² | - |
| 1788557870 | 31.11° C | 22% | 1094.5 hPa | 0 mm | - | 627 W/m² | - |
| 1788557566 | 31.11° C | 21% | 1094.7 hPa | 0 mm | - | 637 W/m² | - |
| 1788557262 | 31.11° C | 24% | 1094.8 hPa | 0 mm | - | 647 W/m² | - |
| 1788556961 | 31.11° C | 24% | 1094.5 hPa | 0 mm | - | 654 W/m² | - |
| 1788556656 | 31.11° C | 22% | 1094.6 hPa | 0 mm | - | 669 W/m² | - |
| 1788556351 | 31.11° C | 25% | 1094.8 hPa | 0 mm | - | 680 W/m² | - |
| 1788556046 | 30.56° C | 26% | 1094.7 hPa | 0 mm | - | 687 W/m² | - |
| 1788555741 | 30.56° C | 27% | 1094.6 hPa | 0 mm | - | 693 W/m² | - |
| 1788555438 | 30° C | 25% | 1094.7 hPa | 0 mm | - | 699 W/m² | - |
| 1788555134 | 30° C | 24% | 1094.8 hPa | 0 mm | - | 713 W/m² | - |
| 1788554843 | 30° C | 26% | 1094.7 hPa | 0 mm | - | 715 W/m² | - |
| 1788554520 | 30° C | 25% | 1094.9 hPa | 0 mm | - | 719 W/m² | - |
| 1788554216 | 29.44° C | 25% | 1094.8 hPa | 0 mm | - | 735 W/m² | - |
| 1788553912 | 29.44° C | 26% | 1094.7 hPa | 0 mm | - | 742 W/m² | - |
| 1788553608 | 30° C | 24% | 1095 hPa | 0 mm | - | 752 W/m² | - |
| 1788553304 | 30° C | 26% | 1094.8 hPa | 0 mm | - | 757 W/m² | - |
| 1788553004 | 30.56° C | 27% | 1094.7 hPa | 0 mm | - | 760 W/m² | - |
| 1788552699 | 30.56° C | 26% | 1094.9 hPa | 0 mm | - | 764 W/m² | - |
* Rain latest hour (hover to see other rain measurements)
** Current wind speed in m/s (hover to see current wind gust speed)